Location: The Saddle
(36.8333°N, 80.3417°W)
Time: 13:21:08
(UTC-04:00)

ARIANE 6 FM1 Upper Stage - Pass Details

Date: 28 May 2026
Orbit: 528 x 599 km, 62.0° (Epoch: 11 June)

Event Time Altitude Azimuth Distance (km) Brightness Sun altitude
Rises 05:25:57 0° 180° (S) 2,773 5.9 -7.6°
Reaches altitude 10° 05:28:38 10° 164° (SSE) 1,866 5.2 -7.1°
Maximum altitude 05:31:46 21° 115° (ESE) 1,306 5.0 -6.6°
Drops below altitude 10° 05:34:53 10° 66° (ENE) 1,842 7.0 -6.1°
Sets 05:37:29 0° 50° (NE) 2,727 8.6 -5.7°
